Terminal Aerodrome Forecast
Issued by NWS

Home | Current Version | Previous Version | Text Only | Print | Product List | Glossary On
Versions: 1 2 3 4 5 6 7 8 9 10 11 12 13 14 15 16 17 18
487
FTUS41 KGYX 040857 AAA
TAFAUG
TAF AMD
KAUG 040857Z 0409/0506 05005KT P6SM OVC040
     FM041900 08008KT P6SM OVC015 PROB30 0423/0502 4SM -RA OVC010
     FM050400 03009KT 4SM -RA BR OVC004=

USA.gov is the U.S. government's official web portal to all federal, state and local government web resources and services.